Location: *
(46.4000°N, 12.6667°E)
Time: 02:09:36
(UTC+00:00)

SJ-6B - Pass Details

Date: 09 April 2020
Orbit: 509 x 582 km, 97.6° (Epoch: 03 June)

Event Time Altitude Azimuth Distance (km) Brightness Sun altitude
Exits shadow 18:40:05 - 160° (SSE) 2,627 5.9 -9.2°
Reaches altitude 10° 18:41:51 10° 158° (SSE) 1,893 5.1 -9.4°
Maximum altitude 18:45:56 71° 75° (ENE) 621 2.9 -10.1°
Drops below altitude 10° 18:50:04 10° 351° (N) 1,909 6.0 -10.7°
Sets 18:52:14 0° 350° (N) 2,809 7.0 -11.1°
